Anaktuvuk Pass, AK

5:34 PM AKDT on May 22, 2018 (GMT -0800)
Anaktuvuk Pass

Weather History for PAKP - March, 2013

Change the Weather History Date:

Monday, March 11, 2013

  Actual Average Record
Temperature  
Mean Temperature -2 °F -  
Max Temperature 8 °F 0 °F 23 °F (2005)
Min Temperature -11 °F -10 °F -38 °F (2007)
Degree Days  
Heating Degree Days 66    
Moisture  
Dew Point -3 °F    
Average Humidity 79    
Maximum Humidity 92    
Minimum Humidity 32    
Precipitation  
Precipitation 0.00 in - - ()
Sea Level Pressure  
Sea Level Pressure 30.46 in    
Wind  
Wind Speed 12 mph (NNE)    
Max Wind Speed 17 mph    
Max Gust Speed 22 mph    
Visibility 7 miles    
Events      
Averages and records for this station are not official NWS values.
T = Trace of Precipitation, MM = Missing Value Source: NWS Daily Summary

Daily Weather History Graph

Daily Weather History Graph

Search for Another Location

Airport or City:

Astronomy

Mar. 11, 2013 Rise Set
Actual Time 8:42 AM AKDT 7:52 PM AKDT
Civil Twilight 7:47 AM AKDT 8:48 PM AKDT
Nautical Twilight 6:40 AM AKDT 9:55 PM AKDT
Astronomical Twilight 5:26 AM AKDT 11:11 PM AKDT
Moon 8:05 AM AKDT (3/11) 8:48 PM AKDT (3/11)
Length of Visible Light 13h 01m
Length of Day
11h 10m
New Moon, 0% of the Moon is Illuminated
Mar 11
New Moon
Mar 19
First Quarter
Mar 27
Full
Apr 2
Last Quarter
Apr 10
New

Hourly Weather History & Observations

Time (AKDT) Temp. Windchill Dew Point Humidity Pressure Visibility Wind Dir Wind Speed Gust Speed Precip Events Conditions
12:16 AM 8.6 °F -8.3 °F 3.2 °F 79% 30.28 in 5.0 mi NNE 15.0 mph - N/A   Overcast
12:36 AM 8.6 °F -6.3 °F 3.2 °F 79% 30.29 in 10.0 mi NNE 11.5 mph - N/A   Overcast
12:56 AM 8.6 °F -7.7 °F 3.2 °F 79% 30.29 in 8.0 mi NE 13.8 mph - N/A   Overcast
1:16 AM 8.6 °F -8.3 °F 3.2 °F 79% 30.30 in 5.0 mi NNE 15.0 mph - N/A   Overcast
1:36 AM 8.6 °F -8.3 °F 3.2 °F 79% 30.31 in 4.0 mi NE 15.0 mph - N/A   Overcast
1:56 AM 8.6 °F -8.9 °F 3.2 °F 79% 30.33 in 3.0 mi NNE 16.1 mph - N/A   Overcast
2:16 AM 8.6 °F -8.3 °F 3.2 °F 79% 30.33 in 3.0 mi NE 15.0 mph 19.6 mph N/A   Overcast
2:36 AM 8.6 °F -7.0 °F 3.2 °F 79% 30.35 in 3.0 mi NNE 12.7 mph 19.6 mph N/A   Overcast
2:56 AM 8.6 °F -8.3 °F 3.2 °F 79% 30.35 in 3.0 mi NNE 15.0 mph - N/A   Overcast
3:16 AM 6.8 °F -11.3 °F 3.2 °F 85% 30.36 in 3.0 mi NE 16.1 mph - N/A   Overcast
3:36 AM 6.8 °F -9.3 °F 1.4 °F 79% 30.36 in 5.0 mi NNE 12.7 mph - N/A   Overcast
3:56 AM 6.8 °F -9.3 °F 1.4 °F 79% 30.37 in 4.0 mi NE 12.7 mph - N/A   Overcast
4:16 AM 6.8 °F -8.6 °F 1.4 °F 79% 30.38 in 5.0 mi NE 11.5 mph - N/A   Overcast
4:36 AM 6.8 °F -9.3 °F 1.4 °F 79% 30.38 in 5.0 mi NE 12.7 mph - N/A   Overcast
4:56 AM 6.8 °F -8.6 °F 1.4 °F 79% 30.39 in 4.0 mi NE 11.5 mph 17.3 mph N/A   Overcast
5:16 AM 6.8 °F -8.6 °F 1.4 °F 79% 30.40 in 8.0 mi NE 11.5 mph - N/A   Overcast
5:36 AM 6.8 °F -8.6 °F 1.4 °F 79% 30.40 in 5.0 mi NNE 11.5 mph - N/A   Overcast
5:56 AM 6.8 °F -10.0 °F -0.4 °F 72% 30.41 in 5.0 mi NE 13.8 mph - N/A   Overcast
6:16 AM 6.8 °F -7.8 °F 1.4 °F 79% 30.42 in 7.0 mi NE 10.4 mph 17.3 mph N/A   Overcast
6:36 AM 6.8 °F -10.0 °F 1.4 °F 79% 30.43 in 8.0 mi NE 13.8 mph - N/A   Overcast
6:56 AM 6.8 °F -8.6 °F 1.4 °F 79% 30.43 in 7.0 mi NE 11.5 mph - N/A   Overcast
7:16 AM 6.8 °F -9.3 °F 1.4 °F 79% 30.44 in 7.0 mi NE 12.7 mph - N/A   Overcast
7:36 AM 5.0 °F -11.6 °F -0.4 °F 78% 30.44 in 8.0 mi NE 12.7 mph - N/A   Overcast
7:56 AM 5.0 °F -13.0 °F 1.4 °F 85% 30.45 in 4.0 mi NE 15.0 mph - N/A   Overcast
8:16 AM 5.0 °F -13.6 °F 1.4 °F 85% 30.45 in 3.0 mi NE 16.1 mph 20.7 mph N/A   Overcast
8:36 AM 5.0 °F -14.2 °F -0.4 °F 78% 30.46 in 2.5 mi NE 17.3 mph - N/A   Overcast
8:56 AM 5.0 °F -14.2 °F -0.4 °F 78% 30.46 in 3.0 mi NE 17.3 mph - N/A   Overcast
9:16 AM 5.0 °F -13.6 °F -0.4 °F 78% 30.46 in 1.5 mi ENE 16.1 mph 21.9 mph N/A   Overcast
9:36 AM 5.0 °F -13.6 °F -0.4 °F 78% 30.47 in 1.2 mi ENE 16.1 mph - N/A   Overcast
9:56 AM 5.0 °F -13.0 °F -0.4 °F 78% 30.48 in 1.8 mi NE 15.0 mph - N/A   Overcast
10:16 AM 5.0 °F -13.6 °F -0.4 °F 78% 30.48 in 3.0 mi NE 16.1 mph - N/A   Overcast
10:36 AM 5.0 °F -13.6 °F -0.4 °F 78% 30.49 in 2.5 mi NE 16.1 mph 20.7 mph N/A   Overcast
10:56 AM 5.0 °F -14.2 °F -0.4 °F 78% 30.49 in 4.0 mi NE 17.3 mph 20.7 mph N/A   Mostly Cloudy
11:16 AM 3.2 °F -14.6 °F -0.4 °F 85% 30.49 in 5.0 mi NE 13.8 mph - N/A   Partly Cloudy
11:36 AM 3.2 °F -13.1 °F -0.4 °F 85% 30.50 in 8.0 mi NE 11.5 mph - N/A   Clear
11:56 AM 3.2 °F -11.3 °F -2.2 °F 78% 30.50 in 7.0 mi NE 9.2 mph - N/A   Clear
12:16 PM 3.2 °F -12.2 °F -0.4 °F 85% 30.50 in 10.0 mi ENE 10.4 mph - N/A   Clear
12:36 PM 3.2 °F -10.3 °F -0.4 °F 85% 30.50 in 10.0 mi ENE 8.1 mph - N/A   Clear
12:56 PM 5.0 °F -6.9 °F -0.4 °F 78% 30.50 in 10.0 mi NNE 6.9 mph - N/A   Clear
1:16 PM 3.2 °F -7.8 °F -2.2 °F 78% 30.51 in 10.0 mi ENE 5.8 mph - N/A   Clear
1:36 PM 3.2 °F -10.3 °F -0.4 °F 85% 30.51 in 10.0 mi NE 8.1 mph - N/A   Clear
1:56 PM 3.2 °F -10.3 °F -2.2 °F 78% 30.52 in 10.0 mi NNE 8.1 mph - N/A   Clear
2:16 PM 3.2 °F -7.8 °F -2.2 °F 78% 30.52 in 10.0 mi North 5.8 mph - N/A   Clear
2:36 PM 1.4 °F -12.5 °F -2.2 °F 85% 30.52 in 10.0 mi NNE 8.1 mph - N/A   Clear
2:56 PM 1.4 °F -11.3 °F -4.0 °F 78% 30.52 in 10.0 mi NNE 6.9 mph - N/A   Clear
3:16 PM 1.4 °F -9.9 °F -4.0 °F 78% 30.52 in 10.0 mi North 5.8 mph - N/A   Clear
3:36 PM 1.4 °F -11.3 °F -4.0 °F 78% 30.52 in 10.0 mi NE 6.9 mph - N/A   Clear
3:56 PM 1.4 °F -12.5 °F -4.0 °F 78% 30.53 in 10.0 mi NNE 8.1 mph - N/A   Clear
4:16 PM 1.4 °F -8.3 °F -4.0 °F 78% 30.54 in 10.0 mi NNE 4.6 mph - N/A   Clear
4:36 PM 1.4 °F -12.5 °F -4.0 °F 78% 30.53 in 10.0 mi NNE 8.1 mph - N/A   Clear
4:56 PM -0.4 °F -13.4 °F -5.8 °F 78% 30.54 in 10.0 mi NNE 6.9 mph - N/A   Clear
5:16 PM -0.4 °F -12.0 °F -5.8 °F 78% 30.53 in 10.0 mi NNE 5.8 mph - N/A   Clear
5:36 PM -2.2 °F -15.6 °F -7.6 °F 78% 30.54 in 10.0 mi North 6.9 mph - N/A   Clear
5:56 PM -2.2 °F -14.2 °F -5.8 °F 85% 30.54 in 10.0 mi NNE 5.8 mph - N/A   Clear
6:16 PM -2.2 °F -15.6 °F -7.6 °F 78% 30.55 in 10.0 mi North 6.9 mph - N/A   Clear
6:36 PM -2.2 °F -15.6 °F -7.6 °F 78% 30.54 in 10.0 mi NNE 6.9 mph - N/A   Clear
6:56 PM -4.0 °F -16.3 °F -9.4 °F 78% 30.54 in 8.0 mi North 5.8 mph - N/A   Clear
7:16 PM -4.0 °F -17.8 °F -7.6 °F 85% 30.54 in 10.0 mi NNW 6.9 mph - N/A   Clear
7:36 PM -4.0 °F -17.8 °F -7.6 °F 85% 30.54 in 10.0 mi NNW 6.9 mph - N/A   Clear
7:56 PM -5.8 °F -18.4 °F -9.4 °F 84% 30.54 in 10.0 mi NNE 5.8 mph - N/A   Clear
8:16 PM -5.8 °F -16.7 °F -11.2 °F 77% 30.54 in 9.0 mi North 4.6 mph - N/A   Clear
8:36 PM -7.6 °F -23.4 °F -9.4 °F 92% 30.54 in 10.0 mi NNE 8.1 mph - N/A   Clear
8:56 PM -7.6 °F -16.5 °F -11.2 °F 84% 30.54 in 7.0 mi North 3.5 mph - N/A   Clear
9:16 PM -7.6 °F -22.1 °F -11.2 °F 84% 30.54 in 9.0 mi North 6.9 mph - N/A   Clear
9:36 PM -5.8 °F -18.4 °F -9.4 °F 84% 30.53 in 10.0 mi NNE 5.8 mph - N/A   Clear
10:16 PM -11.2 °F -24.8 °F -16.6 °F 77% 30.52 in 10.0 mi NE 5.8 mph - N/A   Clear
10:36 PM -9.4 °F -20.9 °F -14.8 °F 77% 30.51 in 10.0 mi North 4.6 mph - N/A   Clear
10:56 PM -7.6 °F -16.5 °F -9.4 °F 92% 30.50 in 10.0 mi NNW 3.5 mph - N/A   Clear
11:16 PM -9.4 °F -24.3 °F - N/A% 30.50 in 10.0 mi NNE 6.9 mph - N/A   Clear
11:36 PM -5.8 °F -18.4 °F -29.2 °F 32% 30.51 in 10.0 mi North 5.8 mph - N/A   Clear
11:56 PM -5.8 °F - -27.4 °F 35% 30.51 in 10.0 mi Calm Calm - N/A   Clear